Tracking 29892 objects as of 21-Nov-2024
HD Live streaming from Space Station
objects crossing your sky now

STARLINK-30964

Track STARLINK-30964 now!
10-day predictions
STARLINK-30964 is classified as:


NORAD ID: 58402
Int'l Code: 2023-180A
Perigee: 565.3 km
Apogee: 567.1 km
Inclination: 43.0 °
Period: 95.8 minutes
Semi major axis: 6937 km
RCS: Unknown
Launch date: November 22, 2023
Source: United States (US)
Launch site: AIR FORCE EASTERN TEST RANGE (AFETR)
Your satellite tracking list
Your tracking list is empty




NASA's NSSDC Master Catalog

Two Line Element Set (TLE):
1 58402U 23180A   24325.80272798  .00000938  00000-0  84466-4 0  9994
2 58402  43.0033 110.6998 0001276 273.0308  87.0388 15.02547647 56306
Source of the keplerian elements: AFSPC